UAL850 NZCH-PHNL

Flight info

Callsign UAL850
Flight time N/A
Altitude 33000
Route GLENN Y175 OMKUN Y655 POKOM Q277 AA G347 MALNI/N0485F350 G347 DULCE/N0483F370 G347 DATBE/N0477F380 DCT CARRP OPACA4
Aircraft B77W/H-SDE1E2E3FGHIJ2J3J4J5M1RWXY/LB1D1

Departure

Time 2026-05-03 22:46
Airport Christchurch International Airport (NZCH)

Arrival

Time N/A
Airport Daniel K. Inouye International Airport (PHNL)
Time Latitude Longitude Altitude Speed Heading
2026-05-03 21:42 -43.48622 172.54071 113 ft 0 kts 208°
2026-05-03 22:37 -43.48616 172.54076 113 ft 2 kts 208°
2026-05-03 22:37 -43.48601 172.54086 113 ft 2 kts 208°
2026-05-03 22:37 -43.48586 172.54099 113 ft 2 kts 208°
2026-05-03 22:37 -43.48573 172.54109 113 ft 2 kts 223°
2026-05-03 22:38 -43.48564 172.54126 113 ft 2 kts 239°
2026-05-03 22:38 -43.48557 172.54144 113 ft 2 kts 253°
2026-05-03 22:38 -43.48554 172.54164 113 ft 2 kts 267°
2026-05-03 22:38 -43.48554 172.54179 113 ft 0 kts 276°
2026-05-03 22:40 -43.48554 172.54173 113 ft 2 kts 276°
2026-05-03 22:40 -43.48550 172.54146 113 ft 3 kts 284°
2026-05-03 22:40 -43.48542 172.54118 113 ft 3 kts 299°
2026-05-03 22:40 -43.48521 172.54086 113 ft 4 kts 321°
2026-05-03 22:41 -43.48495 172.54068 113 ft 4 kts 344°
2026-05-03 22:41 -43.48459 172.54071 113 ft 5 kts 20°
2026-05-03 22:41 -43.48428 172.54095 113 ft 5 kts 36°
2026-05-03 22:41 -43.48392 172.54137 113 ft 8 kts 40°
2026-05-03 22:42 -43.48344 172.54193 113 ft 10 kts 39°
2026-05-03 22:42 -43.48288 172.54257 113 ft 10 kts 40°
2026-05-03 22:42 -43.48235 172.54318 113 ft 10 kts 39°
2026-05-03 22:42 -43.48176 172.54385 113 ft 12 kts 40°
2026-05-03 22:43 -43.48104 172.54469 113 ft 14 kts 39°
2026-05-03 22:43 -43.48023 172.54564 112 ft 16 kts 41°
2026-05-03 22:43 -43.47932 172.54671 110 ft 17 kts 40°
2026-05-03 22:43 -43.47844 172.54771 110 ft 15 kts 39°
2026-05-03 22:44 -43.47767 172.54862 108 ft 14 kts 41°
2026-05-03 22:44 -43.47696 172.54916 106 ft 9 kts
2026-05-03 22:44 -43.47634 172.54903 106 ft 8 kts 346°
2026-05-03 22:44 -43.47582 172.54883 106 ft 7 kts 340°
2026-05-03 22:45 -43.47542 172.54851 106 ft 5 kts 314°
2026-05-03 22:45 -43.47532 172.54808 107 ft 3 kts 264°
2026-05-03 22:45 -43.47541 172.54782 107 ft 2 kts 226°
2026-05-03 22:45 -43.47556 172.54764 108 ft 7 kts 221°
2026-05-03 22:46 -43.47800 172.54483 113 ft 86 kts 219°
2026-05-03 22:46 -43.48460 172.53722 116 ft 161 kts 221°
2026-05-03 22:46 -43.49458 172.52602 466 ft 199 kts 217°
2026-05-03 22:46 -43.50695 172.51747 1385 ft 208 kts 194°
2026-05-03 22:47 -43.52128 172.51695 1879 ft 216 kts 164°
2026-05-03 22:47 -43.53616 172.52449 2052 ft 242 kts 166°
2026-05-03 22:47 -43.55360 172.52467 2440 ft 259 kts 190°
2026-05-03 22:47 -43.57124 172.52002 3269 ft 260 kts 190°
2026-05-03 22:48 -43.58919 172.51596 3941 ft 266 kts 188°
2026-05-03 22:48 -43.60734 172.51237 4662 ft 269 kts 188°
2026-05-03 22:48 -43.62616 172.50884 5424 ft 272 kts 188°